Find Starlink 5403

NORAD ID: 54862 Int'l Des: 2022-177 Owner: SPXS Country: US Constellation: starlink operational
LEOCIRCULAR

Live-Position

3D-Globus wird geladen...

Über Starlink 5403

Beschreibung wird geladen...

Nächste Überflüge

Passes for default location (London). Set your location on the main map for personalized predictions.

Höhenverlauf

Loading altitude history...

Zweizeiliger Elementsatz

1 54862U 22177AU 26120.23012192 .00000842 00000-0 41057-4 0 9990
2 54862 43.0021 190.4692 0001237 275.6832 84.3878 15.26743104184974
Epoch: 30. Apr. 2026 • Age: 11 hours

Aktueller Status

Höhe 496.7 km
Geschwindigkeit 7.62 km/s
Subsatellitenpunkt -39.61°S, 29.1°W
Startdatum 28. Dez. 2022
Alter 3.3 years
Typ internet

Technische Details

Klassifizierung Payload
Masse 305.00 kg
Trockenmasse 290.00 kg
Gesamtmasse 305.00 kg
Länge 0.20 m
Durchmesser 2.80 m
Spannweite 9.00 m
Form Box + pan
Hersteller SPXS
Bus-Typ Starlink
Phasenstatus In Orbit
Besitzer/Staat SPXS/US

Most Searched